Wetbulb
60.33 60.10 59.67 59.92 60.14 60.06 60.37 61.13 61.51 61.76 61.60 61.09 61.05 60.93 60.46 60.42 60.20 59.81 59.58 59.07 59.00 59.18
59.99 60.09 59.82 60.03 60.38 60.19 60.54 60.85 61.40 61.29 61.14 60.88 61.09 61.04 60.72 60.53 60.27 60.41 60.00 59.98 59.74 59.24
59.98 60.31 60.13 60.29 60.29 60.26 60.59 61.43 60.78 60.39 60.42 60.78 61.45 61.59 60.86 60.29 60.38 60.64 59.96 59.44 59.47 59.07
59.97 60.31 60.14 60.10 60.14 60.20 59.82 60.02 60.31 60.64 60.80 61.00 61.24 61.05 60.72 60.45 60.42 60.63 59.41 60.16 59.63 59.43
59.94 59.69 59.34 59.72 60.14 59.90 60.01 60.54 60.70 61.78 61.63 61.43 61.45 61.40 60.73 60.24 60.81 59.94 58.77 58.83 59.23 58.93
59.49 59.36 59.22 59.69 60.23 60.13 59.91 60.30 61.43 61.83 61.45 61.67 61.38 60.63 60.54 60.54 60.75 60.29 59.95 59.09 58.77 59.27
59.41 59.57 59.65 59.83 59.43 59.75 59.99 60.19 60.52 61.33 61.74 61.01 60.58 60.63 60.95 61.07 60.85 60.63 60.32 60.19 60.70 60.76
59.41 59.66 59.97 59.61 59.25 59.87 60.22 60.15 61.06 60.71 60.04 59.77 59.47 57.44 59.36 60.98 60.60 60.31 60.43 60.52 60.78 60.64
59.66 59.80 59.98 59.61 59.24 60.12 60.50 60.74 60.97 59.39 58.93 58.30 55.54 45.97 48.20 56.35 62.09 61.45 59.96 58.83 59.53 59.61
60.36 60.11 59.80 59.89 59.86 60.09 59.99 59.50 58.84 58.40 58.14 57.03 55.78 45.16 46.26 52.06 60.54 60.53 60.22 59.79 59.67 59.97
60.53 60.01 60.01 59.62 59.55 58.74 58.77 58.47 57.98 57.33 57.03 56.91 54.24 45.72 47.71 50.25 59.74 60.20 60.67 60.88 60.17 59.39
60.48 59.96 59.72 58.82 58.45 58.02 57.80 57.58 57.21 56.89 56.61 57.23 56.90 46.08 47.17 55.05 60.82 60.06 59.97 60.56 59.97 59.54
60.60 60.28 59.38 58.57 58.07 58.13 58.33 58.01 57.53 56.18 56.53 52.85 57.86 46.26 47.35 56.21 59.99 59.12 58.28 58.20 57.04 50.97
60.42 60.38 59.73 58.44 58.83 58.40 58.58 57.49 56.38 55.60 55.82 56.80 55.73 53.56 46.26 50.79 60.39 59.47 58.20 57.56 56.09 52.40
MSLP
1001.95 1002.43 1003.11 1003.62 1004.26 1004.82 1005.33 1005.75 1006.13 1006.52 1006.87 1007.19 1007.65 1007.98 1008.37 1008.67 1008.81 1009.14 1009.41 1009.59 1009.79 1009.96
1002.18 1002.63 1003.23 1003.87 1004.36 1004.90 1005.36 1005.68 1006.07 1006.46 1006.79 1007.14 1007.50 1007.84 1008.09 1008.34 1008.63 1008.91 1009.01 1009.25 1009.55 1009.74
1002.43 1002.90 1003.45 1003.93 1004.45 1005.00 1005.39 1005.72 1006.07 1006.38 1006.72 1007.08 1007.39 1007.63 1007.88 1008.19 1008.51 1008.77 1008.82 1008.90 1009.23 1009.43
1002.85 1003.26 1003.71 1004.12 1004.65 1005.00 1005.41 1005.76 1006.04 1006.36 1006.71 1006.96 1007.25 1007.52 1007.75 1008.00 1008.33 1008.46 1008.59 1008.76 1008.90 1008.95
1003.13 1003.52 1003.95 1004.37 1004.74 1005.15 1005.58 1005.83 1006.04 1006.34 1006.60 1006.90 1007.12 1007.28 1007.50 1007.81 1008.04 1008.20 1008.38 1008.41 1008.63 1008.65
1003.41 1003.83 1004.17 1004.52 1004.95 1005.30 1005.61 1005.85 1006.13 1006.32 1006.62 1006.89 1007.03 1007.19 1007.39 1007.60 1007.76 1007.87 1008.18 1008.28 1008.38 1008.34
1003.52 1003.90 1004.25 1004.67 1005.04 1005.30 1005.61 1005.92 1006.13 1006.37 1006.60 1006.88 1007.09 1007.22 1007.42 1007.56 1007.56 1007.68 1007.87 1008.06 1008.14 1008.26
1003.63 1004.07 1004.45 1004.80 1005.15 1005.35 1005.63 1005.96 1006.23 1006.53 1006.79 1007.09 1007.31 1007.58 1007.59 1007.51 1007.58 1007.69 1007.88 1008.03 1008.14 1008.25
1003.81 1004.21 1004.56 1004.91 1005.22 1005.47 1005.70 1006.11 1006.39 1006.71 1006.96 1007.36 1007.77 1007.99 1007.91 1007.62 1007.54 1007.70 1007.95 1007.98 1008.16 1008.38
1003.87 1004.27 1004.72 1004.98 1005.31 1005.67 1005.98 1006.36 1006.60 1006.93 1007.19 1007.59 1007.98 1008.02 1007.83 1007.64 1007.73 1007.85 1008.08 1008.28 1008.33 1008.60
1003.80 1004.34 1004.77 1005.09 1005.38 1005.82 1006.22 1006.58 1006.89 1007.25 1007.49 1007.81 1008.19 1007.99 1007.86 1007.80 1007.97 1008.14 1008.28 1008.47 1008.61 1008.80
1003.69 1004.29 1004.78 1005.15 1005.53 1006.01 1006.41 1006.82 1007.20 1007.50 1007.74 1007.89 1008.14 1008.15 1008.07 1008.04 1008.16 1008.32 1008.47 1008.61 1008.76 1009.06
1003.64 1004.21 1004.71 1005.07 1005.59 1006.01 1006.45 1006.87 1007.27 1007.66 1007.94 1008.12 1008.16 1008.41 1008.31 1008.31 1008.42 1008.56 1008.76 1008.98 1009.18 1009.39
1003.75 1004.26 1004.64 1005.14 1005.71 1006.16 1006.62 1007.04 1007.46 1007.76 1008.10 1008.28 1008.34 1008.61 1008.56 1008.57 1008.61 1008.76 1008.98 1009.32 1009.68 1010.16
Wind_Speed
7 6 5 5 6 4 3 4 5 4 4 4 4 4 4 3 3 4 4 6 5 3
7 8 7 7 5 4 4 3 5 5 5 4 4 5 4 3 3 3 3 5 5 4
7 7 7 6 6 6 5 5 5 5 5 4 4 4 4 3 3 4 3 3 5 5
7 7 6 6 5 6 5 5 5 5 5 4 4 4 3 3 4 4 3 3 4 5
7 6 6 5 5 5 5 5 5 5 4 4 4 4 4 4 4 5 6 5 4 4
6 6 6 6 5 5 5 5 4 4 4 4 3 3 3 3 4 4 4 4 5 5
6 6 5 5 5 6 5 5 4 4 4 4 3 2 2 3 4 4 4 4 4 3
5 5 5 5 5 5 5 4 4 5 5 5 4 2 1 1 3 4 4 3 2 3
5 5 5 5 5 5 5 4 5 5 5 5 4 5 4 1 4 4 5 4 3 4
6 6 5 5 5 5 5 5 5 5 5 5 3 6 2 3 4 4 5 4 4 4
6 6 5 5 5 5 5 5 4 4 4 4 2 5 5 7 7 6 5 4 4 6
7 7 6 5 5 4 5 4 3 4 4 4 3 4 6 7 6 5 4 4 5 6
7 7 6 6 6 3 4 4 5 5 4 4 3 4 7 6 4 5 4 4 5 9
6 6 6 6 3 5 6 6 5 5 3 4 3 3 4 7 3 4 4 3 4 4
Wind_Direction
129 127 131 141 143 138 132 145 151 156 167 167 151 170 169 174 185 186 198 204 202 195
119 125 133 126 120 124 132 142 150 161 160 154 169 169 168 174 197 200 199 208 203 203
122 118 120 126 127 136 136 138 146 147 145 164 168 166 169 158 218 213 223 203 204 210
119 116 119 123 134 141 135 145 145 145 157 162 167 172 173 192 216 226 215 204 211 221
120 122 122 131 138 140 139 143 142 151 148 156 175 166 173 193 207 200 202 180 196 229
130 133 139 143 145 141 136 136 141 137 147 152 143 141 187 203 207 199 197 187 184 224
153 150 143 145 144 141 150 152 141 156 138 120 122 129 164 175 193 177 163 181 209 215
143 137 139 142 146 146 147 147 142 133 109 108 101 43 338 202 176 150 133 131 145 142
139 138 146 141 155 151 126 130 132 119 119 109 84 341 344 279 145 142 135 125 109 108
147 139 150 150 152 145 135 138 124 114 115 101 84 358 9 134 109 118 122 125 129 114
147 142 148 148 147 111 127 140 120 119 113 109 53 3 98 116 109 106 107 122 127 128
151 144 152 152 139 121 131 124 121 130 128 109 59 35 119 113 106 101 92 107 117 127
147 148 160 148 138 125 132 126 121 119 111 96 91 74 127 121 111 109 95 73 89 110
144 149 152 137 125 130 130 120 112 120 111 90 53 97 144 130 111 122 104 95 87 96